Location: Tamazert
(32.6352°N, 5.2072°W)
Time: 15:17:17
(UTC+00:00)

COSMOS 2455 - Pass Details

Date: 22 May 2022
Orbit: 901 x 908 km, 67.1° (Epoch: 29 June)

Event Time Altitude Azimuth Distance (km) Brightness Sun altitude
Exits shadow 03:31:48 35° 225° (SW) 1,424 3.3 -19.5°
Maximum altitude 03:34:22 67° 296° (WNW) 978 2.9 -19.1°
Drops below altitude 10° 03:40:22 10° 19° (NNE) 2,594 6.1 -18.2°
Sets 03:42:55 0° 23° (NNE) 3,538 7.0 -17.8°
